Tracking 21092 objects as of 14-Aug-2020
HD Live streaming from Space Station
objects crossing your sky now
Track the most recent launched group of Starlink satellites

OPS 7323 (DMSP 5B F3)

Track OPS 7323 (DMSP 5B F3) now!
10-day predictions
OPS 7323 (DMSP 5B F3) is classified as:


NORAD ID: 6275
Int'l Code: 1972-089A
Perigee: 779.5 km
Apogee: 832.3 km
Inclination: 98.5 °
Period: 100.8 minutes
Semi major axis: 7176 km
RCS: 1.5352 m2 (large)
Launch date: November 9, 1972
Source: United States (US)
Launch site: AIR FORCE WESTERN TEST RANGE (AFWTR)
aabbcc
Your satellite tracking list
Your tracking list is empty




NASA's NSSDC Master Catalog

Two Line Element Set (TLE):
1  6275U 72089A   20227.16058982  .00000033  00000-0  30022-4 0  9995
2  6275  98.4617  64.3794 0036744 116.4972 243.9985 14.27900377480365
Source of the keplerian elements: AFSPC